| time (UTC) | temp F | wind direction | speed MPH | gust MPH | rain 1hr in | rain 24hr in | rain mn in | humidity % | barometer mb |
| 20260506091025 | 75 | 172 | 4.0 | 7.0 | 0.00 | 0.00 | 0.00 | 90 | 1007.8 |
| 20260506090504 | 75 | 177 | 3.0 | 7.0 | 0.00 | 0.00 | 0.00 | 90 | 1007.8 |
| 20260506090004 | 75 | 170 | 3.0 | 7.0 | 0.00 | 0.00 | 0.00 | 90 | 1007.7 |
| 20260506085504 | 75 | 169 | 3.0 | 7.0 | 0.00 | 0.00 | 0.00 | 90 | 1007.8 |
| 20260506085004 | 75 | 173 | 3.0 | 6.0 | 0.00 | 0.00 | 0.00 | 90 | 1007.7 |
| 20260506084525 | 75 | 174 | 3.0 | 6.0 | 0.00 | 0.00 | 0.00 | 89 | 1007.8 |
| 20260506084004 | 76 | 169 | 3.0 | 6.0 | 0.00 | 0.00 | 0.00 | 89 | 1007.8 |
| 20260506083525 | 76 | 165 | 3.0 | 9.0 | 0.00 | 0.00 | 0.00 | 89 | 1007.8 |
| 20260506083025 | 76 | 165 | 3.0 | 9.0 | 0.00 | 0.00 | 0.00 | 89 | 1007.6 |
| 20260506082525 | 76 | 167 | 3.0 | 6.0 | 0.00 | 0.00 | 0.00 | 89 | 1007.7 |
| 20260506082004 | 76 | 171 | 3.0 | 6.0 | 0.00 | 0.00 | 0.00 | 89 | 1007.7 |
| 20260506081505 | 76 | 177 | 4.0 | 7.0 | 0.00 | 0.00 | 0.00 | 89 | 1007.7 |
| 20260506081004 | 76 | 177 | 4.0 | 9.0 | 0.00 | 0.00 | 0.00 | 89 | 1007.6 |
| 20260506080504 | 76 | 178 | 4.0 | 9.0 | 0.00 | 0.00 | 0.00 | 89 | 1007.5 |
| 20260506073504 | 76 | 169 | 4.0 | 9.0 | 0.00 | 0.00 | 0.00 | 87 | 1008.0 |
| 20260506073004 | 76 | 166 | 3.0 | 7.0 | 0.00 | 0.00 | 0.00 | 88 | 1008.0 |
| 20260506072504 | 76 | 167 | 4.0 | 8.0 | 0.00 | 0.00 | 0.00 | 88 | 1007.9 |
| 20260506072004 | 76 | 163 | 4.0 | 8.0 | 0.00 | 0.00 | 0.00 | 87 | 1008.1 |
| 20260506071504 | 76 | 164 | 5.0 | 8.0 | 0.00 | 0.00 | 0.00 | 88 | 1008.1 |
| 20260506071004 | 76 | 166 | 4.0 | 8.0 | 0.00 | 0.00 | 0.00 | 88 | 1008.1 |
| 20260506070504 | 76 | 164 | 4.0 | 8.0 | 0.00 | 0.00 | 0.00 | 88 | 1008.1 |
| 20260506062504 | 76 | 167 | 6.0 | 14.0 | 0.00 | 0.00 | 0.00 | 88 | 1008.1 |
| 20260506062004 | 76 | 164 | 6.0 | 14.0 | 0.00 | 0.00 | 0.00 | 88 | 1008.1 |
| 20260506061504 | 76 | 161 | 5.0 | 11.0 | 0.00 | 0.00 | 0.00 | 88 | 1008.2 |
| 20260506061004 | 76 | 168 | 5.0 | 9.0 | 0.00 | 0.00 | 0.00 | 89 | 1008.2 |
| 20260506060504 | 76 | 164 | 5.0 | 9.0 | 0.00 | 0.00 | 0.00 | 89 | 1008.2 |
| 20260506051024 | 77 | 154 | 5.0 | 10.0 | 0.00 | 0.00 | 0.00 | 87 | 1008.1 |
| 20260506050503 | 77 | 157 | 5.0 | 14.0 | 0.00 | 0.00 | 0.00 | 87 | 1008.0 |
| 20260506045004 | 77 | 156 | 4.0 | 9.0 | 0.00 | 0.00 | 0.00 | 87 | 1008.2 |
| 20260506044504 | 77 | 155 | 4.0 | 9.0 | 0.00 | 0.00 | 0.00 | 87 | 1008.3 |
| 20260506044004 | 76 | 150 | 4.0 | 7.0 | 0.00 | 0.00 | 0.00 | 87 | 1008.2 |
| 20260506043503 | 76 | 146 | 4.0 | 9.0 | 0.00 | 0.00 | 0.00 | 87 | 1008.3 |
| 20260506043004 | 77 | 151 | 5.0 | 9.0 | 0.00 | 0.00 | 0.00 | 87 | 1008.3 |
| 20260506042504 | 77 | 149 | 5.0 | 8.0 | 0.00 | 0.00 | 0.00 | 87 | 1008.1 |
| 20260506042003 | 77 | 143 | 5.0 | 9.0 | 0.00 | 0.00 | 0.00 | 87 | 1008.0 |
| 20260506041503 | 77 | 144 | 5.0 | 10.0 | 0.00 | 0.00 | 0.00 | 87 | 1008.1 |
| 20260506041004 | 77 | 146 | 4.0 | 10.0 | 0.00 | 0.00 | 0.00 | 87 | 1008.1 |
| 20260506040503 | 77 | 152 | 4.0 | 11.0 | 0.00 | 0.00 | 0.00 | 87 | 1008.1 |
| 20260506040004 | 77 | 147 | 5.0 | 11.0 | 0.00 | 0.00 | 0.00 | 86 | 1008.0 |
| 20260506035504 | 77 | 145 | 5.0 | 10.0 | 0.00 | 0.00 | 0.00 | 86 | 1007.9 |
| 20260506035004 | 77 | 147 | 6.0 | 10.0 | 0.00 | 0.00 | 0.00 | 86 | 1007.7 |
| 20260506034504 | 77 | 146 | 6.0 | 11.0 | 0.00 | 0.00 | 0.00 | 86 | 1007.8 |
| 20260506034003 | 77 | 146 | 6.0 | 11.0 | 0.00 | 0.00 | 0.00 | 86 | 1007.6 |
| 20260506033503 | 77 | 149 | 6.0 | 14.0 | 0.00 | 0.00 | 0.00 | 86 | 1007.5 |
| 20260506033025 | 77 | 150 | 6.0 | 14.0 | 0.00 | 0.00 | 0.00 | 86 | 1007.5 |
| 20260506032503 | 78 | 147 | 6.0 | 10.0 | 0.00 | 0.00 | 0.00 | 86 | 1007.4 |
| 20260506032004 | 78 | 148 | 6.0 | 12.0 | 0.00 | 0.00 | 0.00 | 85 | 1007.5 |
| 20260506031504 | 78 | 146 | 6.0 | 12.0 | 0.00 | 0.00 | 0.00 | 85 | 1007.4 |
| 20260506031003 | 78 | 145 | 5.0 | 12.0 | 0.00 | 0.00 | 0.00 | 85 | 1007.3 |
| 20260506030503 | 78 | 147 | 5.0 | 9.0 | 0.00 | 0.00 | 0.00 | 85 | 1007.3 |
| 20260506030005 | 78 | 149 | 5.0 | 9.0 | 0.00 | 0.00 | 0.00 | 84 | 1007.2 |
| 20260506025525 | 78 | 148 | 5.0 | 9.0 | 0.00 | 0.00 | 0.00 | 84 | 1007.2 |
| 20260506025004 | 78 | 146 | 5.0 | 9.0 | 0.00 | 0.00 | 0.00 | 84 | 1007.2 |
| 20260506024504 | 79 | 144 | 5.0 | 8.0 | 0.00 | 0.00 | 0.00 | 84 | 1007.1 |
| 20260506024003 | 79 | 146 | 4.0 | 7.0 | 0.00 | 0.00 | 0.00 | 83 | 1007.0 |
| 20260506023525 | 79 | 152 | 4.0 | 9.0 | 0.00 | 0.00 | 0.00 | 83 | 1007.1 |
| 20260506023004 | 79 | 151 | 5.0 | 11.0 | 0.00 | 0.00 | 0.00 | 83 | 1007.1 |
| 20260506022503 | 79 | 148 | 5.0 | 11.0 | 0.00 | 0.00 | 0.00 | 83 | 1006.9 |
| 20260506022004 | 79 | 144 | 4.0 | 11.0 | 0.00 | 0.00 | 0.00 | 83 | 1006.6 |
| 20260506021504 | 79 | 136 | 3.0 | 6.0 | 0.00 | 0.00 | 0.00 | 83 | 1006.6 |
| 20260506021004 | 79 | 137 | 3.0 | 8.0 | 0.00 | 0.00 | 0.00 | 83 | 1006.5 |
| 20260506020503 | 80 | 138 | 4.0 | 10.0 | 0.00 | 0.00 | 0.00 | 82 | 1006.4 |
| 20260506020004 | 80 | 137 | 4.0 | 10.0 | 0.00 | 0.00 | 0.00 | 82 | 1006.4 |
| 20260506015524 | 80 | 134 | 4.0 | 8.0 | 0.00 | 0.00 | 0.00 | 81 | 1006.5 |
| 20260506015003 | 80 | 134 | 4.0 | 9.0 | 0.00 | 0.00 | 0.00 | 81 | 1006.4 |
| 20260506014504 | 80 | 133 | 4.0 | 9.0 | 0.00 | 0.00 | 0.00 | 80 | 1006.4 |
| 20260506014003 | 81 | 139 | 4.0 | 9.0 | 0.00 | 0.00 | 0.00 | 80 | 1006.3 |
| 20260506013504 | 81 | 141 | 4.0 | 9.0 | 0.00 | 0.00 | 0.00 | 80 | 1006.3 |
| 20260506013003 | 81 | 129 | 3.0 | 6.0 | 0.00 | 0.00 | 0.00 | 80 | 1006.2 |
| 20260506012505 | 81 | 135 | 3.0 | 8.0 | 0.00 | 0.00 | 0.00 | 79 | 1006.1 |
| 20260506012026 | 81 | 140 | 4.0 | 10.0 | 0.00 | 0.00 | 0.00 | 79 | 1006.1 |
| 20260506011505 | 82 | 139 | 4.0 | 10.0 | 0.00 | 0.00 | 0.00 | 79 | 1006.0 |
| 20260506011026 | 82 | 132 | 3.0 | 7.0 | 0.00 | 0.00 | 0.00 | 79 | 1006.0 |
| 20260506010505 | 82 | 130 | 3.0 | 10.0 | 0.00 | 0.00 | 0.00 | 78 | 1005.9 |
| 20260506010005 | 82 | 128 | 3.0 | 10.0 | 0.00 | 0.00 | 0.00 | 78 | 1005.8 |
| 20260506005526 | 82 | 127 | 3.0 | 7.0 | 0.00 | 0.00 | 0.00 | 77 | 1005.8 |
| 20260506005005 | 83 | 129 | 3.0 | 7.0 | 0.00 | 0.00 | 0.00 | 77 | 1005.7 |
| 20260506004505 | 83 | 121 | 3.0 | 7.0 | 0.00 | 0.00 | 0.00 | 76 | 1005.7 |
| 20260506004005 | 83 | 114 | 2.0 | 7.0 | 0.00 | 0.00 | 0.00 | 75 | 1005.6 |
| 20260506003527 | 84 | 103 | 2.0 | 5.0 | 0.00 | 0.00 | 0.00 | 75 | 1005.6 |
| 20260506003005 | 84 | 118 | 2.0 | 5.0 | 0.00 | 0.00 | 0.00 | 74 | 1005.6 |
| 20260506002504 | 84 | 136 | 2.0 | 6.0 | 0.00 | 0.00 | 0.00 | 74 | 1005.5 |
| 20260506002004 | 84 | 144 | 3.0 | 7.0 | 0.00 | 0.00 | 0.00 | 73 | 1005.5 |
| 20260506001504 | 84 | 144 | 3.0 | 7.0 | 0.00 | 0.00 | 0.00 | 73 | 1005.4 |
| 20260506001005 | 84 | 140 | 3.0 | 8.0 | 0.00 | 0.00 | 0.00 | 72 | 1005.5 |
| 20260506000505 | 84 | 136 | 3.0 | 8.0 | 0.00 | 0.00 | 0.00 | 72 | 1005.4 |
| 20260506000004 | 85 | 134 | 3.0 | 7.0 | 0.00 | 0.00 | 0.00 | 71 | 1005.2 |
| 20260505235505 | 85 | 139 | 4.0 | 8.0 | 0.00 | 0.00 | 0.00 | 72 | 1005.2 |
| 20260505235025 | 85 | 141 | 4.0 | 8.0 | 0.00 | 0.00 | 0.00 | 72 | 1005.1 |
| 20260505234505 | 85 | 141 | 4.0 | 7.0 | 0.00 | 0.00 | 0.00 | 71 | 1005.0 |
| 20260505234026 | 85 | 142 | 4.0 | 7.0 | 0.00 | 0.00 | 0.00 | 71 | 1005.1 |
| 20260505233526 | 85 | 147 | 4.0 | 7.0 | 0.00 | 0.00 | 0.00 | 71 | 1005.1 |
| 20260505233005 | 85 | 153 | 4.0 | 7.0 | 0.00 | 0.00 | 0.00 | 71 | 1005.2 |
| 20260505232505 | 85 | 151 | 5.0 | 9.0 | 0.00 | 0.00 | 0.00 | 71 | 1005.1 |
| 20260505232004 | 86 | 142 | 5.0 | 9.0 | 0.00 | 0.00 | 0.00 | 70 | 1005.2 |
| 20260505231505 | 86 | 139 | 4.0 | 9.0 | 0.00 | 0.00 | 0.00 | 70 | 1005.2 |
| 20260505231005 | 86 | 159 | 5.0 | 9.0 | 0.00 | 0.00 | 0.00 | 69 | 1005.2 |
| 20260505230505 | 86 | 160 | 6.0 | 9.0 | 0.00 | 0.00 | 0.00 | 69 | 1005.2 |
| 20260505230026 | 86 | 150 | 5.0 | 9.0 | 0.00 | 0.00 | 0.00 | 69 | 1005.1 |
| 20260505225505 | 86 | 154 | 5.0 | 9.0 | 0.00 | 0.00 | 0.00 | 69 | 1005.1 |
| 20260505225005 | 86 | 155 | 5.0 | 11.0 | 0.00 | 0.00 | 0.00 | 72 | 1005.1 |
| 20260505224505 | 85 | 141 | 5.0 | 11.0 | 0.00 | 0.00 | 0.00 | 71 | 1005.2 |
| 20260505224026 | 85 | 136 | 5.0 | 10.0 | 0.00 | 0.00 | 0.00 | 71 | 1005.2 |
| 20260505223505 | 85 | 138 | 5.0 | 9.0 | 0.00 | 0.00 | 0.00 | 71 | 1005.3 |
| 20260505223005 | 86 | 138 | 4.0 | 10.0 | 0.00 | 0.00 | 0.00 | 71 | 1005.3 |
| 20260505222505 | 86 | 138 | 4.0 | 10.0 | 0.00 | 0.00 | 0.00 | 70 | 1005.4 |
| 20260505222005 | 86 | 145 | 4.0 | 9.0 | 0.00 | 0.00 | 0.00 | 70 | 1005.5 |
| 20260505221504 | 86 | 145 | 4.0 | 9.0 | 0.00 | 0.00 | 0.00 | 72 | 1005.4 |
| 20260505221005 | 85 | 143 | 4.0 | 9.0 | 0.00 | 0.00 | 0.00 | 71 | 1005.4 |
| 20260505220505 | 85 | 143 | 4.0 | 8.0 | 0.00 | 0.00 | 0.00 | 72 | 1005.5 |
| 20260505220005 | 86 | 159 | 5.0 | 9.0 | 0.00 | 0.00 | 0.00 | 71 | 1005.4 |
| 20260505215505 | 86 | 164 | 5.0 | 9.0 | 0.00 | 0.00 | 0.00 | 70 | 1005.4 |
| 20260505215004 | 86 | 166 | 6.0 | 12.0 | 0.00 | 0.00 | 0.00 | 68 | 1005.6 |
| 20260505214504 | 86 | 180 | 5.0 | 12.0 | 0.00 | 0.00 | 0.00 | 67 | 1005.6 |
| 20260505214005 | 86 | 192 | 5.0 | 9.0 | 0.00 | 0.00 | 0.00 | 69 | 1005.7 |
| 20260505213504 | 86 | 186 | 5.0 | 9.0 | 0.00 | 0.00 | 0.00 | 70 | 1005.8 |
| 20260505213005 | 86 | 176 | 4.0 | 8.0 | 0.00 | 0.00 | 0.00 | 70 | 1005.9 |
| 20260505212505 | 86 | 190 | 5.0 | 11.0 | 0.00 | 0.00 | 0.00 | 70 | 1005.9 |
| 20260505212004 | 86 | 190 | 5.0 | 11.0 | 0.00 | 0.00 | 0.00 | 70 | 1006.0 |
| 20260505211504 | 85 | 178 | 4.0 | 10.0 | 0.00 | 0.00 | 0.00 | 70 | 1006.1 |
| 20260505211004 | 85 | 162 | 4.0 | 10.0 | 0.00 | 0.00 | 0.00 | 70 | 1006.1 |
| 20260505210504 | 85 | 141 | 4.0 | 8.0 | 0.00 | 0.00 | 0.00 | 71 | 1006.1 |
| 20260505210005 | 85 | 155 | 4.0 | 9.0 | 0.00 | 0.00 | 0.00 | 72 | 1006.3 |
| 20260505205525 | 84 | 162 | 4.0 | 9.0 | 0.00 | 0.00 | 0.00 | 72 | 1006.2 |
| 20260505205004 | 84 | 173 | 4.0 | 9.0 | 0.00 | 0.00 | 0.00 | 72 | 1006.4 |
| 20260505204505 | 84 | 180 | 4.0 | 10.0 | 0.00 | 0.00 | 0.00 | 72 | 1006.6 |
| 20260505204025 | 84 | 175 | 5.0 | 10.0 | 0.00 | 0.00 | 0.00 | 71 | 1006.6 |
| 20260505203505 | 85 | 165 | 5.0 | 10.0 | 0.00 | 0.00 | 0.00 | 71 | 1006.7 |
| 20260505203004 | 85 | 165 | 5.0 | 9.0 | 0.00 | 0.00 | 0.00 | 73 | 1006.7 |
| 20260505202506 | 84 | 173 | 4.0 | 9.0 | 0.00 | 0.00 | 0.00 | 73 | 1006.7 |
| 20260505202006 | 84 | 178 | 5.0 | 10.0 | 0.00 | 0.00 | 0.00 | 73 | 1006.9 |
| 20260505201504 | 84 | 183 | 6.0 | 12.0 | 0.00 | 0.00 | 0.00 | 72 | 1007.0 |
| 20260505201005 | 84 | 183 | 6.0 | 12.0 | 0.00 | 0.00 | 0.00 | 72 | 1007.0 |
| 20260505200505 | 84 | 179 | 6.0 | 11.0 | 0.00 | 0.00 | 0.00 | 73 | 1007.0 |
| 20260505200005 | 83 | 180 | 6.0 | 11.0 | 0.00 | 0.00 | 0.00 | 74 | 1007.1 |
| 20260505195504 | 83 | 184 | 6.0 | 11.0 | 0.00 | 0.00 | 0.00 | 73 | 1007.1 |
| 20260505195005 | 83 | 174 | 5.0 | 11.0 | 0.00 | 0.00 | 0.00 | 74 | 1007.1 |
| 20260505194505 | 83 | 157 | 4.0 | 10.0 | 0.00 | 0.00 | 0.00 | 74 | 1007.2 |
| 20260505194026 | 83 | 173 | 5.0 | 10.0 | 0.00 | 0.00 | 0.00 | 74 | 1007.3 |
| 20260505193505 | 83 | 189 | 5.0 | 9.0 | 0.00 | 0.00 | 0.00 | 75 | 1007.4 |
| 20260505193005 | 83 | 187 | 5.0 | 9.0 | 0.00 | 0.00 | 0.00 | 73 | 1007.5 |
| 20260505192504 | 83 | 198 | 5.0 | 9.0 | 0.00 | 0.00 | 0.00 | 76 | 1007.6 |
| 20260505192026 | 82 | 210 | 4.0 | 9.0 | 0.00 | 0.00 | 0.00 | 75 | 1007.7 |
| 20260505191504 | 82 | 200 | 4.0 | 9.0 | 0.00 | 0.00 | 0.00 | 76 | 1008.0 |
| 20260505191004 | 82 | 183 | 5.0 | 9.0 | 0.00 | 0.00 | 0.00 | 76 | 1008.1 |
| 20260505190527 | 82 | 185 | 5.0 | 9.0 | 0.00 | 0.00 | 0.00 | 75 | 1008.0 |
| 20260505190025 | 82 | 196 | 5.0 | 10.0 | 0.00 | 0.00 | 0.00 | 75 | 1008.0 |
| 20260505185504 | 81 | 205 | 6.0 | 10.0 | 0.00 | 0.00 | 0.00 | 76 | 1008.2 |
| 20260505185004 | 81 | 203 | 6.0 | 11.0 | 0.00 | 0.00 | 0.00 | 77 | 1008.1 |
| 20260505184505 | 81 | 199 | 5.0 | 11.0 | 0.00 | 0.00 | 0.00 | 76 | 1008.3 |
| 20260505184004 | 80 | 201 | 5.0 | 9.0 | 0.00 | 0.00 | 0.00 | 78 | 1008.4 |
| 20260505183504 | 80 | 191 | 6.0 | 11.0 | 0.00 | 0.00 | 0.00 | 78 | 1008.4 |
| 20260505183025 | 80 | 184 | 6.0 | 11.0 | 0.00 | 0.00 | 0.00 | 77 | 1008.5 |
| 20260505182505 | 80 | 191 | 5.0 | 10.0 | 0.00 | 0.00 | 0.00 | 79 | 1008.4 |
| 20260505182005 | 80 | 193 | 5.0 | 10.0 | 0.00 | 0.00 | 0.00 | 80 | 1008.4 |
| 20260505181505 | 79 | 195 | 5.0 | 10.0 | 0.00 | 0.00 | 0.00 | 80 | 1008.5 |
| 20260505181004 | 79 | 183 | 5.0 | 10.0 | 0.00 | 0.00 | 0.00 | 82 | 1008.5 |
| 20260505180505 | 79 | 168 | 4.0 | 9.0 | 0.00 | 0.00 | 0.00 | 82 | 1008.5 |
| 20260505180004 | 78 | 178 | 4.0 | 9.0 | 0.00 | 0.00 | 0.00 | 82 | 1008.6 |
| 20260505175525 | 78 | 192 | 4.0 | 8.0 | 0.00 | 0.00 | 0.00 | 82 | 1008.6 |
| 20260505175005 | 78 | 191 | 4.0 | 8.0 | 0.00 | 0.00 | 0.00 | 81 | 1008.6 |
| 20260505174504 | 78 | 192 | 4.0 | 8.0 | 0.00 | 0.00 | 0.00 | 82 | 1008.7 |
| 20260505174005 | 78 | 203 | 5.0 | 9.0 | 0.00 | 0.00 | 0.00 | 82 | 1008.7 |
| 20260505173504 | 78 | 197 | 5.0 | 9.0 | 0.00 | 0.00 | 0.00 | 83 | 1008.9 |
| 20260505173005 | 78 | 188 | 4.0 | 8.0 | 0.00 | 0.00 | 0.00 | 82 | 1008.8 |
| 20260505172504 | 78 | 187 | 4.0 | 8.0 | 0.00 | 0.00 | 0.00 | 82 | 1008.8 |
| 20260505172005 | 77 | 193 | 5.0 | 9.0 | 0.00 | 0.00 | 0.00 | 83 | 1008.8 |
| 20260505171504 | 77 | 196 | 5.0 | 9.0 | 0.00 | 0.00 | 0.00 | 83 | 1008.8 |
| 20260505171004 | 77 | 197 | 5.0 | 12.0 | 0.00 | 0.00 | 0.00 | 83 | 1008.8 |
| 20260505170504 | 77 | 195 | 6.0 | 12.0 | 0.00 | 0.00 | 0.00 | 83 | 1008.9 |
| 20260505170004 | 77 | 199 | 5.0 | 9.0 | 0.00 | 0.00 | 0.00 | 84 | 1008.9 |
| 20260505165525 | 77 | 210 | 6.0 | 10.0 | 0.00 | 0.00 | 0.00 | 84 | 1009.0 |
| 20260505165004 | 76 | 211 | 6.0 | 11.0 | 0.00 | 0.00 | 0.00 | 84 | 1009.0 |
| 20260505164505 | 76 | 210 | 7.0 | 12.0 | 0.00 | 0.00 | 0.00 | 84 | 1009.0 |
| 20260505164025 | 76 | 210 | 7.0 | 12.0 | 0.00 | 0.00 | 0.00 | 84 | 1009.0 |
| 20260505163504 | 76 | 206 | 6.0 | 10.0 | 0.00 | 0.00 | 0.00 | 84 | 1008.9 |
| 20260505163025 | 76 | 201 | 6.0 | 10.0 | 0.00 | 0.00 | 0.00 | 85 | 1008.9 |
| 20260505162504 | 76 | 203 | 6.0 | 11.0 | 0.00 | 0.00 | 0.00 | 85 | 1008.9 |
| 20260505162025 | 76 | 209 | 6.0 | 11.0 | 0.00 | 0.00 | 0.00 | 86 | 1008.9 |
| 20260505161505 | 75 | 211 | 6.0 | 10.0 | 0.00 | 0.00 | 0.00 | 86 | 1009.0 |
| 20260505161004 | 75 | 210 | 6.0 | 11.0 | 0.00 | 0.00 | 0.00 | 87 | 1008.8 |
| 20260505160526 | 75 | 212 | 6.0 | 11.0 | 0.00 | 0.00 | 0.00 | 87 | 1008.8 |
| 20260505153005 | 74 | 217 | 6.0 | 12.0 | 0.00 | 0.00 | 0.00 | 88 | 1008.8 |
| 20260505152504 | 74 | 211 | 6.0 | 12.0 | 0.00 | 0.00 | 0.00 | 88 | 1008.8 |
| 20260505152006 | 74 | 207 | 5.0 | 11.0 | 0.00 | 0.00 | 0.00 | 88 | 1008.8 |
| 20260505151504 | 74 | 203 | 5.0 | 10.0 | 0.00 | 0.00 | 0.00 | 89 | 1008.8 |
| 20260505151004 | 73 | 206 | 6.0 | 10.0 | 0.00 | 0.00 | 0.00 | 89 | 1008.8 |
| 20260505150504 | 73 | 213 | 5.0 | 11.0 | 0.00 | 0.00 | 0.00 | 89 | 1008.9 |
| 20260505140505 | 71 | 212 | 6.0 | 13.0 | 0.00 | 0.00 | 0.00 | 92 | 1008.8 |
| 20260505125004 | 71 | 201 | 6.0 | 12.0 | 0.00 | 0.00 | 0.00 | 91 | 1008.5 |
| 20260505124504 | 71 | 198 | 6.0 | 12.0 | 0.00 | 0.00 | 0.00 | 91 | 1008.3 |
| 20260505124004 | 71 | 201 | 6.0 | 10.0 | 0.00 | 0.00 | 0.00 | 91 | 1008.4 |
| 20260505123504 | 71 | 198 | 7.0 | 13.0 | 0.00 | 0.00 | 0.00 | 91 | 1008.3 |
| 20260505123004 | 71 | 199 | 7.0 | 13.0 | 0.00 | 0.00 | 0.00 | 91 | 1008.2 |
| 20260505122505 | 71 | 203 | 6.0 | 14.0 | 0.00 | 0.00 | 0.00 | 91 | 1008.2 |
| 20260505122026 | 71 | 207 | 7.0 | 14.0 | 0.00 | 0.00 | 0.00 | 91 | 1008.1 |
| 20260505121504 | 71 | 203 | 7.0 | 12.0 | 0.00 | 0.00 | 0.00 | 91 | 1008.1 |
| 20260505121004 | 71 | 205 | 7.0 | 12.0 | 0.00 | 0.00 | 0.00 | 91 | 1008.1 |
| 20260505120504 | 71 | 205 | 7.0 | 12.0 | 0.00 | 0.00 | 0.00 | 91 | 1007.9 |
| 20260505120006 | 71 | 201 | 7.0 | 13.0 | 0.00 | 0.00 | 0.00 | 91 | 1007.8 |
| 20260505115525 | 71 | 200 | 8.0 | 14.0 | 0.00 | 0.00 | 0.00 | 91 | 1007.8 |
| 20260505115004 | 71 | 197 | 8.0 | 14.0 | 0.00 | 0.00 | 0.00 | 91 | 1007.8 |
| 20260505114504 | 71 | 194 | 7.0 | 14.0 | 0.00 | 0.00 | 0.00 | 91 | 1007.8 |
| 20260505114004 | 71 | 196 | 6.0 | 14.0 | 0.00 | 0.00 | 0.00 | 91 | 1007.7 |
| 20260505113505 | 71 | 199 | 6.0 | 11.0 | 0.00 | 0.00 | 0.00 | 91 | 1007.7 |
| 20260505113004 | 71 | 204 | 7.0 | 15.0 | 0.00 | 0.00 | 0.00 | 91 | 1007.7 |
| 20260505112504 | 71 | 202 | 8.0 | 16.0 | 0.00 | 0.00 | 0.00 | 91 | 1007.6 |
| 20260505112004 | 71 | 200 | 7.0 | 16.0 | 0.00 | 0.00 | 0.00 | 91 | 1007.6 |
| 20260505111504 | 71 | 200 | 7.0 | 18.0 | 0.00 | 0.00 | 0.00 | 91 | 1007.7 |
| 20260505111004 | 71 | 198 | 8.0 | 18.0 | 0.00 | 0.00 | 0.00 | 91 | 1007.7 |
| 20260505110504 | 71 | 199 | 7.0 | 11.0 | 0.00 | 0.00 | 0.00 | 91 | 1007.6 |
| 20260505102004 | 70 | 202 | 6.0 | 11.0 | 0.00 | 0.00 | 0.00 | 92 | 1007.9 |
| 20260505101504 | 70 | 200 | 6.0 | 11.0 | 0.00 | 0.00 | 0.00 | 92 | 1008.0 |
| 20260505101025 | 70 | 198 | 6.0 | 11.0 | 0.00 | 0.00 | 0.00 | 92 | 1007.9 |
| 20260505100504 | 70 | 200 | 6.0 | 11.0 | 0.00 | 0.00 | 0.00 | 93 | 1007.9 |
| 20260505100005 | 70 | 197 | 6.0 | 11.0 | 0.00 | 0.00 | 0.00 | 93 | 1008.0 |
| 20260505095525 | 70 | 197 | 6.0 | 11.0 | 0.00 | 0.00 | 0.00 | 93 | 1008.0 |
| 20260505095004 | 69 | 197 | 5.0 | 8.0 | 0.00 | 0.00 | 0.00 | 93 | 1008.0 |
| 20260505094504 | 69 | 197 | 5.0 | 7.0 | 0.00 | 0.00 | 0.00 | 93 | 1008.1 |
| 20260505094004 | 69 | 200 | 4.0 | 7.0 | 0.00 | 0.00 | 0.00 | 93 | 1008.0 |
| 20260505093525 | 69 | 202 | 4.0 | 8.0 | 0.00 | 0.00 | 0.00 | 93 | 1008.1 |
| 20260505093025 | 69 | 203 | 5.0 | 8.0 | 0.00 | 0.00 | 0.00 | 93 | 1008.2 |
| 20260505092504 | 69 | 200 | 4.0 | 7.0 | 0.00 | 0.00 | 0.00 | 93 | 1008.1 |
| 20260505092025 | 69 | 192 | 4.0 | 9.0 | 0.00 | 0.00 | 0.00 | 93 | 1008.2 |
| 20260505091504 | 69 | 189 | 4.0 | 9.0 | 0.00 | 0.00 | 0.00 | 93 | 1008.0 |